Погода в Кызыл-Урупе

Россия / Карачаево-Черкесская Республика     44°00′19″N   41°13′16″E
темп.,
°C
ветер,
м/с
пор.,
м/с
влажн.,
%
обл.,
%
осадки,
мм/ч
давл.,
гПа
погр.,
м
9 марта, вт
вт900:00−8ю229152 0.0 101822
03:00−9ююз228476 0.0 101922
06:00−10ююз22770 0.0 101821
09:00−3юз12720 0.0 1018160
12:00+1сз13700 0.0 1017795
15:00+1с33762 0.3 1018609
18:00−3св129795 1.2 1020145
21:00−5юв119798 2.2 102234
10 марта, ср
ср1000:00−8юз129239 0.3 102223
03:00−9зсз119224 0.4 102423
06:00−10з00909 0.0 102421
09:00−5ссв118154 0.1 1024240
12:00−3св228393 0.0 1022513
15:00−3св228696 0.1 1021421
18:00−5в2392100 0.1 1019271
21:00−6в1295100 0.1 101994
11 марта, чт
чт1100:00−6в1295100 0.0 1017109
03:00−5вюв1194100 0.3 1016103
06:00−6св1196100 0.8 1015130
09:00−6св2393100 1.8 1015248
12:00−5св3591100 1.3 1014450
15:00−6св4693100 2.6 1013548
18:00−8св4695100 1.8 1014461
21:00−10ссв3595100 3.6 1015400
12 марта, пт
пт1200:00−11ссв3495100 1.6 1015357
03:00−12ссв3595100 3.2 1016362
06:00−13ссв3595100 1.8 1018371
09:00−11св2393100 3.1 1020384
12:00−9св3388100 0.5 1020550
15:00−8св3490100 0.9 1021512
18:00−12ссв2396100 0.4 1024122
21:00−16ю019998 0.6 102720
13 марта, сб
сб1300:00−14ююв12923 0.0 102720
03:00−12ююз22862 0.0 102821
06:00−10ююз228056 0.0 102921
09:00−4ююз127768 0.0 1028144
12:00−1всв118011 0.0 1027607
15:00−1всв228533 0.0 1025548
18:00−5в129083 0.0 102521
21:00−7юв228892 0.0 102524